FW6558 Weather Reports


Display with metric or nautical units.
time (UTC)temp
F
wind
direction
speed
MPH
gust
MPH
rain 1hr
in
rain 24hr
in
rain mn
in
humidity
%
barometer
mb
20260510113304 53 254 1.0 3.0 0.00 0.00 0.00 80 1017.9
20260510112804 53 294 2.0 3.0 0.00 0.00 0.00 80 1018.0
20260510112306 53 288 2.0 3.0 0.00 0.00 0.00 79 1017.8
20260510111804 53 256 1.0 2.0 0.00 0.00 0.00 81 1017.8
20260510111304 53 292 2.0 2.0 0.00 0.00 0.00 81 1017.6
20260510110803 51 319 0.0 0.0 0.00 0.00 0.00 86 1017.9
20260510110304 50 261 0.0 2.0 0.00 0.00 0.00 88 1018.1
20260510105803 50 261 1.0 3.0 0.00 0.00 0.00 86 1017.9
20260510105306 53 263 2.0 3.0 0.00 0.00 0.00 81 1017.7
20260510104304 53 266 1.0 5.0 0.00 0.00 0.00 81 1017.3
20260510103804 52 256 2.0 3.0 0.00 0.00 0.00 83 1017.0
20260510103304 52 260 2.0 3.0 0.00 0.00 0.00 84 1017.3
20260510102804 52 241 1.0 2.0 0.00 0.00 0.00 85 1017.3
20260510102306 52 240 0.0 2.0 0.00 0.00 0.00 86 1017.3
20260510101804 52 223 0.0 2.0 0.00 0.00 0.00 87 1017.1
20260510101304 51 222 1.0 2.0 0.00 0.00 0.00 87 1017.3
20260510100804 51 222 1.0 2.0 0.00 0.00 0.00 89 1017.7
20260510100304 52 221 1.0 2.0 0.00 0.00 0.00 85 1017.1
20260510095803 52 223 1.0 1.0 0.00 0.00 0.00 86 1017.1
20260510095306 51 223 0.0 1.0 0.00 0.00 0.00 87 1017.0
20260510094804 51 217 0.0 1.0 0.00 0.00 0.00 86 1017.1
20260510094303 51 217 0.0 2.0 0.00 0.00 0.00 85 1016.9
20260510093804 52 217 1.0 2.0 0.00 0.00 0.00 85 1016.9
20260510093303 51 218 2.0 3.0 0.00 0.00 0.00 86 1017.0
20260510092804 52 229 1.0 2.0 0.00 0.00 0.00 86 1016.7
20260510092306 53 219 1.0 1.0 0.00 0.00 0.00 83 1016.6
20260510091804 53 219 0.0 1.0 0.00 0.00 0.00 82 1016.6
20260510091303 53 219 1.0 3.0 0.00 0.00 0.00 83 1016.4
20260510090808 52 205 3.0 3.0 0.00 0.00 0.00 87 1016.6
20260510085307 50 167 1.0 2.0 0.00 0.00 0.00 92 1017.2
20260510084808 49 142 1.0 2.0 0.00 0.00 0.00 92 1017.0
20260510084307 49 63 1.0 2.0 0.00 0.00 0.00 92 1017.0
20260510083807 49 61 0.0 0.0 0.00 0.00 0.00 90 1016.9
20260510083307 50 61 0.0 1.0 0.00 0.00 0.00 90 1016.6
20260510082807 50 61 1.0 1.0 0.00 0.00 0.00 91 1016.8
20260510082307 49 60 1.0 1.0 0.00 0.00 0.00 92 1016.8
20260510081307 49 56 0.0 1.0 0.00 0.00 0.00 91 1016.9
20260510080807 49 55 1.0 1.0 0.00 0.00 0.00 91 1016.9
20260510075807 49 34 0.0 2.0 0.00 0.00 0.00 89 1016.7
20260510074808 50 219 1.0 2.0 0.00 0.00 0.00 90 1016.6
20260510074307 50 240 1.0 1.0 0.00 0.00 0.00 89 1016.3
20260510073807 50 119 0.0 2.0 0.00 0.00 0.00 89 1016.6
20260510073307 50 120 1.0 2.0 0.00 0.00 0.00 88 1016.3
20260510072807 51 146 0.0 2.0 0.00 0.00 0.00 88 1016.1
20260510072308 50 231 0.0 0.0 0.00 0.00 0.00 90 1016.4
20260510070807 49 182 1.0 1.0 0.00 0.00 0.00 92 1016.5
20260510070307 49 231 0.0 0.0 0.00 0.00 0.00 89 1016.8
20260510065807 49 231 0.0 0.0 0.00 0.00 0.00 89 1016.6
20260510065308 49 231 0.0 2.0 0.00 0.00 0.00 88 1016.3
20260510064807 50 242 0.0 0.0 0.00 0.00 0.00 86 1016.4
20260510063807 51 242 0.0 0.0 0.00 0.00 0.00 84 1016.1
20260510062807 52 242 0.0 1.0 0.00 0.00 0.00 83 1015.8
20260510062307 52 242 1.0 1.0 0.00 0.00 0.00 84 1016.1
20260510061807 51 243 1.0 2.0 0.00 0.00 0.00 85 1016.2
20260510061307 51 243 1.0 2.0 0.00 0.00 0.00 85 1015.9
20260510060807 51 244 2.0 3.0 0.00 0.00 0.00 86 1016.1
20260510060307 51 249 2.0 3.0 0.00 0.00 0.00 84 1016.0
20260510055807 52 242 2.0 2.0 0.00 0.00 0.00 83 1016.2
20260510055307 52 195 1.0 1.0 0.00 0.00 0.00 82 1015.9
20260510054807 53 110 0.0 2.0 0.00 0.00 0.00 80 1016.0
20260510054307 53 86 0.0 0.0 0.00 0.00 0.00 79 1015.8
20260510053807 53 86 0.0 2.0 0.00 0.00 0.00 79 1015.8
20260510052807 52 60 1.0 1.0 0.00 0.00 0.00 82 1016.1
20260510052307 52 46 0.0 2.0 0.00 0.00 0.00 82 1016.1
20260510051806 52 75 0.0 1.0 0.00 0.00 0.00 82 1016.2
20260510050807 51 49 0.0 0.0 0.00 0.00 0.00 84 1016.2
20260510045807 51 49 0.0 2.0 0.00 0.00 0.00 85 1016.6
20260510044307 51 54 1.0 2.0 0.00 0.00 0.00 83 1016.1
20260510042807 55 350 0.0 5.0 0.00 0.00 0.00 74 1015.0
20260510042307 56 289 5.0 6.0 0.00 0.00 0.00 72 1014.7
20260510041807 57 275 5.0 7.0 0.00 0.00 0.00 71 1014.8
20260510040307 58 264 2.0 2.0 0.00 0.00 0.00 68 1014.6
20260510035807 58 251 2.0 3.0 0.00 0.00 0.00 67 1014.5
20260510035307 58 248 2.0 3.0 0.00 0.00 0.00 67 1014.6
20260510034806 58 262 2.0 5.0 0.00 0.00 0.00 66 1014.3
20260510034306 58 252 2.0 5.0 0.00 0.00 0.00 66 1014.5
20260510033807 58 260 3.0 5.0 0.00 0.00 0.00 67 1014.4
20260510033307 58 248 2.0 2.0 0.00 0.00 0.00 68 1014.4
20260510032806 58 251 2.0 2.0 0.00 0.00 0.00 67 1014.3
20260510032307 58 245 1.0 2.0 0.00 0.00 0.00 67 1014.4
20260510031807 57 235 2.0 2.0 0.00 0.00 0.00 69 1014.6
20260510031306 58 240 1.0 2.0 0.00 0.00 0.00 68 1014.4
20260510030306 57 256 1.0 1.0 0.00 0.00 0.00 68 1014.5
20260510025807 57 256 0.0 1.0 0.00 0.00 0.00 68 1014.7
20260510025307 58 256 0.0 0.0 0.00 0.00 0.00 67 1014.4
20260510024806 58 256 0.0 0.0 0.00 0.00 0.00 67 1014.3
20260510024306 57 256 0.0 1.0 0.00 0.00 0.00 67 1014.3
20260510023307 56 256 1.0 2.0 0.00 0.00 0.00 69 1014.7
20260510022806 57 256 1.0 2.0 0.00 0.00 0.00 68 1014.3
20260510022307 58 257 2.0 2.0 0.00 0.00 0.00 66 1014.0
20260510021807 59 261 0.0 2.0 0.00 0.00 0.00 64 1013.9
20260510021306 59 249 2.0 5.0 0.00 0.00 0.00 64 1013.6
20260510020806 60 249 2.0 5.0 0.00 0.00 0.00 62 1013.6
20260510020307 60 263 2.0 3.0 0.00 0.00 0.00 62 1013.5
20260510015806 60 246 3.0 3.0 0.00 0.00 0.00 62 1013.7
20260510015307 60 251 2.0 3.0 0.00 0.00 0.00 62 1013.4
20260510014807 60 251 2.0 3.0 0.00 0.00 0.00 61 1013.5
20260510014306 60 246 2.0 5.0 0.00 0.00 0.00 61 1013.5
20260510013806 60 256 3.0 5.0 0.00 0.00 0.00 62 1013.0
20260510012807 60 256 3.0 3.0 0.00 0.00 0.00 60 1012.8
20260510011806 60 240 3.0 3.0 0.00 0.00 0.00 60 1012.5
20260510011307 60 248 2.0 3.0 0.00 0.00 0.00 60 1012.1
20260510010806 60 241 3.0 3.0 0.00 0.00 0.00 60 1012.4
20260510010306 61 243 3.0 5.0 0.00 0.00 0.00 59 1012.1
20260510005807 60 259 4.0 6.0 0.00 0.00 0.00 60 1011.9
20260510005307 61 256 3.0 5.0 0.00 0.00 0.00 59 1012.1
20260510003807 61 243 2.0 3.0 0.00 0.00 0.00 58 1011.5
20260510003306 61 243 2.0 3.0 0.00 0.00 0.00 58 1011.6
20260510002806 61 244 2.0 3.0 0.00 0.00 0.00 58 1011.8
20260510002307 61 245 2.0 5.0 0.00 0.00 0.00 58 1011.4
20260510001306 62 232 2.0 6.0 0.00 0.00 0.00 56 1011.3
20260510000306 62 256 3.0 6.0 0.00 0.00 0.00 55 1011.4
20260509235806 62 262 4.0 6.0 0.00 0.00 0.00 55 1011.3
20260509235307 63 276 5.0 7.0 0.00 0.00 0.00 54 1011.1
20260509234306 63 260 6.0 13.0 0.00 0.00 0.00 53 1011.0
20260509233806 63 288 9.0 15.0 0.00 0.00 0.00 52 1010.9
20260509232805 65 255 6.0 7.0 0.00 0.00 0.00 49 1010.7
20260509232306 65 274 5.0 7.0 0.00 0.00 0.00 49 1010.4
20260509231806 65 264 5.0 8.0 0.00 0.00 0.00 50 1010.5
20260509231306 64 274 5.0 10.0 0.00 0.00 0.00 51 1010.7
20260509230306 65 292 12.0 16.0 0.00 0.00 0.00 48 1010.0
20260509225806 66 294 13.0 18.0 0.00 0.00 0.00 47 1009.8
20260509225306 65 274 8.0 13.0 0.00 0.00 0.00 50 1010.2
20260509224806 66 290 8.0 14.0 0.00 0.00 0.00 48 1010.0
20260509224306 66 282 6.0 17.0 0.00 0.00 0.00 49 1009.8
20260509221806 67 274 9.0 20.0 0.00 0.00 0.00 47 1009.7
20260509220806 68 282 9.0 17.0 0.00 0.00 0.00 44 1009.3
20260509220306 68 299 8.0 12.0 0.00 0.00 0.00 46 1009.7
20260509215805 66 264 8.0 9.0 0.00 0.00 0.00 48 1010.0
20260509215306 64 294 7.0 14.0 0.00 0.00 0.00 51 1010.7
20260509214806 65 292 10.0 14.0 0.00 0.00 0.00 50 1010.0
20260509214305 67 275 10.0 17.0 0.00 0.00 0.00 48 1009.8
20260509213806 65 288 9.0 13.0 0.00 0.00 0.00 51 1009.8
20260509213305 66 279 7.0 10.0 0.00 0.00 0.00 50 1009.8
20260509212806 68 254 7.0 9.0 0.00 0.00 0.00 48 1009.5
20260509212306 68 288 6.0 9.0 0.00 0.00 0.00 49 1009.3
20260509211806 66 290 7.0 15.0 0.00 0.00 0.00 51 1009.6
20260509211305 67 282 11.0 14.0 0.00 0.00 0.00 48 1009.4
20260509210806 68 276 8.0 17.0 0.00 0.00 0.00 47 1009.2
20260509210305 68 252 8.0 16.0 0.00 0.00 0.00 46 1009.0
20260509205805 67 271 11.0 17.0 0.00 0.00 0.00 47 1009.2
20260509205307 67 274 14.0 20.0 0.00 0.00 0.00 47 1009.3
20260509204305 68 300 10.0 15.0 0.00 0.00 0.00 49 1009.0
20260509203805 66 276 10.0 23.0 0.00 0.00 0.00 50 1009.2
20260509202806 66 268 14.0 18.0 0.00 0.00 0.00 50 1010.6
20260509202307 66 269 13.0 17.0 0.00 0.00 0.00 49 1012.6
20260509201305 66 268 15.0 20.0 0.00 0.00 0.00 49 1009.2
20260509200806 66 278 12.0 22.0 0.00 0.00 0.00 50 1009.6
20260509200306 66 269 15.0 28.0 0.00 0.00 0.00 49 1009.1
20260509195805 67 274 17.0 23.0 0.00 0.00 0.00 46 1009.0
20260509195306 67 238 13.0 22.0 0.00 0.00 0.00 47 1008.8
20260509194806 68 278 9.0 20.0 0.00 0.00 0.00 48 1008.7
20260509194306 67 298 8.0 13.0 0.00 0.00 0.00 52 1009.0
20260509193805 67 272 5.0 20.0 0.00 0.00 0.00 48 1009.0
20260509193305 68 255 14.0 18.0 0.00 0.00 0.00 45 1008.9
20260509192805 66 278 10.0 18.0 0.00 0.00 0.00 46 1009.1
20260509192306 67 273 12.0 18.0 0.00 0.00 0.00 46 1009.0
20260509191805 67 300 10.0 16.0 0.00 0.00 0.00 45 1009.0
20260509191305 67 283 12.0 16.0 0.00 0.00 0.00 43 1008.8
20260509190806 68 284 12.0 15.0 0.00 0.00 0.00 42 1008.9
20260509190305 67 307 7.0 20.0 0.00 0.00 0.00 46 1008.8
20260509185806 67 264 13.0 20.0 0.00 0.00 0.00 45 1008.7
20260509184306 67 291 7.0 14.0 0.00 0.00 0.00 48 1008.9
20260509183305 68 266 13.0 21.0 0.00 0.00 0.00 46 1008.8
20260509182805 68 277 10.0 18.0 0.00 0.00 0.00 46 1008.6
20260509182307 69 275 13.0 17.0 0.00 0.00 0.00 44 1008.2
20260509181805 68 298 5.0 14.0 0.00 0.00 0.00 47 1008.7
20260509181305 66 262 6.0 14.0 0.00 0.00 0.00 52 1009.1
20260509180805 66 305 7.0 16.0 0.00 0.00 0.00 51 1009.2
20260509180305 67 275 6.0 12.0 0.00 0.00 0.00 47 1009.1
20260509175805 67 276 5.0 9.0 0.00 0.00 0.00 51 1009.3
20260509175307 67 265 9.0 16.0 0.00 0.00 0.00 50 1009.4
20260509174805 68 55 1.0 6.0 0.00 0.00 0.00 53 1008.8
20260509174305 64 235 6.0 8.0 0.00 0.00 0.00 57 1010.0
20260509173805 64 235 6.0 8.0 0.00 0.00 0.00 57 1010.0
20260509173305 64 269 6.0 12.0 0.00 0.00 0.00 52 1009.9
20260509172805 65 288 4.0 12.0 0.00 0.00 0.00 53 1009.9
20260509172306 64 296 8.0 15.0 0.00 0.00 0.00 55 1010.3
20260509171305 64 269 9.0 20.0 0.00 0.00 0.00 53 1010.2
20260509170805 64 290 12.0 16.0 0.00 0.00 0.00 53 1010.1
20260509170305 64 295 6.0 8.0 0.00 0.00 0.00 54 1010.2
20260509165804 65 290 5.0 8.0 0.00 0.00 0.00 55 1009.9
20260509165306 65 291 2.0 7.0 0.00 0.00 0.00 57 1010.2
20260509164304 62 298 4.0 12.0 0.00 0.00 0.00 57 1010.9
20260509163805 62 232 7.0 12.0 0.00 0.00 0.00 55 1011.3
20260509163305 62 270 9.0 12.0 0.00 0.00 0.00 56 1011.4
20260509162805 62 273 4.0 12.0 0.00 0.00 0.00 56 1011.3
20260509162307 62 287 5.0 13.0 0.00 0.00 0.00 56 1011.1
20260509161805 62 310 5.0 9.0 0.00 0.00 0.00 58 1011.1
20260509161305 62 276 5.0 8.0 0.00 0.00 0.00 57 1011.4
20260509160804 61 304 3.0 8.0 0.00 0.00 0.00 62 1011.4
20260509160305 61 286 4.0 8.0 0.00 0.00 0.00 58 1011.5
20260509155804 61 275 6.0 8.0 0.00 0.00 0.00 61 1011.3
20260509155306 61 313 5.0 8.0 0.00 0.00 0.00 59 1011.3
20260509154804 61 279 7.0 13.0 0.00 0.00 0.00 57 1011.3
20260509154305 62 276 9.0 12.0 0.00 0.00 0.00 57 1010.9
20260509153805 61 280 5.0 9.0 0.00 0.00 0.00 58 1011.1
20260509153304 61 278 7.0 10.0 0.00 0.00 0.00 59 1011.2
20260509152805 61 268 6.0 14.0 0.00 0.00 0.00 58 1011.0
20260509151304 60 268 10.0 14.0 0.00 0.00 0.00 57 1011.3
20260509150305 61 283 3.0 10.0 0.00 0.00 0.00 58 1011.0
20260509145306 61 233 3.0 9.0 0.00 0.00 0.00 57 1011.1
20260509144305 61 170 3.0 17.0 0.00 0.00 0.00 55 1011.2
20260509143304 61 251 3.0 12.0 0.00 0.00 0.00 59 1011.1
20260509142804 61 268 6.0 10.0 0.00 0.00 0.00 56 1011.3
20260509142307 61 234 3.0 7.0 0.00 0.00 0.00 57 1010.8
20260509141805 60 241 3.0 8.0 0.00 0.00 0.00 62 1011.4
20260509141304 59 233 6.0 8.0 0.00 0.00 0.00 63 1011.7
20260509140804 59 236 4.0 8.0 0.00 0.00 0.00 64 1011.6
20260509135804 59 229 5.0 9.0 0.00 0.00 0.00 66 1011.7
20260509135306 58 219 3.0 9.0 0.00 0.00 0.00 69 1011.9
20260509134804 58 197 4.0 7.0 0.00 0.00 0.00 70 1011.7
20260509134304 58 24 2.0 7.0 0.00 0.00 0.00 75 1011.8
20260509133804 56 66 4.0 7.0 0.00 0.00 0.00 77 1012.1
20260509133305 56 43 5.0 7.0 0.00 0.00 0.00 77 1012.4
20260509132804 55 35 5.0 8.0 0.00 0.00 0.00 77 1012.8
20260509132306 55 46 5.0 8.0 0.00 0.00 0.00 77 1012.2
20260509130805 54 67 2.0 5.0 0.00 0.00 0.00 81 1013.2
20260509130304 52 72 2.0 5.0 0.00 0.00 0.00 84 1013.3
20260509125804 51 58 2.0 5.0 0.00 0.00 0.00 87 1013.7
20260509124804 51 39 1.0 3.0 0.00 0.00 0.00 87 1014.2
20260509124305 51 54 2.0 3.0 0.00 0.00 0.00 86 1014.1
20260509123804 52 63 3.0 3.0 0.00 0.00 0.00 85 1013.9
20260509121804 51 262 0.0 1.0 0.00 0.00 0.00 87 1014.5
20260509120804 49 263 0.0 0.0 0.00 0.00 0.00 88 1014.9
20260509120304 49 263 0.0 0.0 0.00 0.00 0.00 89 1015.0
20260509115804 49 263 0.0 1.0 0.00 0.00 0.00 90 1014.9
20260509115307 48 263 0.0 1.0 0.00 0.00 0.00 91 1015.3
20260509114804 48 263 1.0 2.0 0.00 0.00 0.00 92 1015.5
20260509114304 47 263 1.0 2.0 0.00 0.00 0.00 92 1015.5
20260509113803 47 263 2.0 3.0 0.00 0.00 0.00 92 1015.7